GW1572 Weather Reports


time (UTC)temp
F
wind
direction
speed
knots
gust
knots
rain 1hr
in
rain 24hr
in
rain mn
in
humidity
%
barometer
mb
20260901132425 76 142 0.0 0.0 0.00 0.00 0.00 99 1011.1
20260901131809 75 149 0.0 0.0 0.00 0.00 0.00 99 1011.1
20260901131233 75 134 0.0 0.0 0.00 0.00 0.00 99 1011.1
20260901130010 74 142 0.0 0.0 0.00 0.00 0.00 99 1011.1
20260901124820 74 135 0.0 0.0 0.00 0.00 0.00 99 1011.5
20260901124234 73 141 0.0 0.0 0.00 0.00 0.00 99 1011.5
20260901123643 73 141 0.0 0.0 0.00 0.00 0.00 99 1011.1
20260901123037 73 140 0.9 0.9 0.00 0.00 0.00 99 1011.1
20260901121830 72 136 0.0 0.0 0.00 0.00 0.00 99 1011.1
20260901121236 72 142 0.0 0.0 0.00 0.00 0.00 99 1011.1
20260901120608 72 141 0.0 0.0 0.00 0.00 0.00 99 1011.1
20260901120048 72 138 0.0 0.0 0.00 0.00 0.00 99 1011.1
20260901115416 72 142 0.0 0.0 0.00 0.00 0.00 99 1011.1
20260901114849 72 141 0.0 0.0 0.00 0.00 0.00 99 1011.1
20260901113609 72 142 0.0 0.0 0.00 0.00 0.00 99 1010.8
20260901113018 72 141 0.0 0.0 0.00 0.00 0.00 99 1010.8
20260901112428 72 142 0.0 0.0 0.00 0.00 0.00 99 1010.8
20260901111830 72 142 0.0 0.0 0.00 0.00 0.00 99 1010.8
20260901111208 72 142 0.0 0.0 0.00 0.00 0.00 99 1010.4
20260901110643 72 141 0.0 0.0 0.00 0.00 0.00 99 1010.4
20260901110028 72 137 0.0 0.0 0.00 0.00 0.00 99 1010.4
20260901105412 72 146 0.0 0.0 0.00 0.00 0.00 99 1010.4
20260901104826 72 146 0.0 0.0 0.00 0.00 0.00 99 1010.4
20260901104245 72 146 0.0 0.0 0.00 0.00 0.00 99 1010.4
20260901103631 72 146 0.0 0.0 0.00 0.00 0.00 99 1010.4
20260901102412 72 142 0.0 0.0 0.00 0.00 0.00 99 1010.4
20260901101826 72 141 0.0 0.0 0.00 0.00 0.00 99 1010.4
20260901101218 72 140 0.0 0.0 0.00 0.00 0.00 99 1010.1
20260901100049 72 137 0.0 0.0 0.00 0.00 0.00 99 1010.1
20260901095442 72 144 0.0 0.0 0.00 0.00 0.00 99 1010.1
20260901094833 72 144 0.0 0.0 0.00 0.00 0.00 99 1010.1
20260901094207 72 145 0.0 0.0 0.00 0.00 0.00 99 1010.1
20260901093621 72 139 0.0 0.0 0.00 0.00 0.00 99 1010.1
20260901091831 72 140 0.0 0.0 0.00 0.00 0.00 99 1009.8
20260901091216 72 137 0.0 0.0 0.00 0.00 0.00 99 1009.8
20260901090621 72 135 0.0 0.0 0.00 0.00 0.00 99 1009.8
20260901085448 72 141 0.0 0.0 0.00 0.00 0.00 99 1009.8
20260901084818 72 140 0.0 0.0 0.00 0.00 0.00 99 1009.4
20260901084215 72 141 0.0 0.0 0.00 0.00 0.00 99 1009.8
20260901083641 73 139 0.0 0.0 0.00 0.00 0.00 99 1009.8
20260901083047 73 142 0.0 0.0 0.00 0.00 0.00 99 1009.8
20260901081844 73 142 0.0 0.0 0.00 0.00 0.00 99 1009.8
20260901081221 73 145 0.0 0.0 0.00 0.00 0.00 99 1009.8
20260901080014 73 142 0.0 0.0 0.00 0.00 0.00 99 1009.4
20260901074811 73 135 0.0 0.0 0.00 0.00 0.00 99 1009.8
20260901074228 73 142 0.0 0.0 0.00 0.00 0.00 99 1009.4
20260901073649 73 142 0.0 0.0 0.00 0.00 0.00 99 1009.4
20260901073013 73 139 0.0 0.0 0.00 0.00 0.00 99 1009.8
20260901071839 74 137 0.0 0.0 0.00 0.00 0.00 99 1009.4
20260901071244 74 133 0.0 0.0 0.00 0.00 0.00 99 1009.4
20260901070023 74 135 0.0 0.0 0.00 0.00 0.00 99 1009.4
20260901065437 74 129 0.0 0.0 0.00 0.00 0.00 99 1009.4
20260901064812 74 125 0.0 0.0 0.00 0.00 0.00 99 1009.4
20260901064233 74 140 0.0 0.0 0.00 0.00 0.00 99 1009.4
20260901063612 74 139 0.0 0.0 0.00 0.00 0.00 99 1009.4
20260901063050 74 139 0.0 0.0 0.00 0.00 0.00 99 1009.4
20260901062443 74 153 0.0 0.0 0.00 0.00 0.00 99 1009.4
20260901061827 74 145 0.0 0.0 0.00 0.00 0.00 99 1009.4
20260901060615 74 142 0.0 0.0 0.00 0.00 0.00 99 1009.4
20260901055441 74 141 0.0 0.0 0.00 0.00 0.00 99 1009.4
20260901054839 74 137 0.0 0.0 0.00 0.00 0.00 99 1009.4
20260901054232 74 130 0.0 0.0 0.00 0.00 0.00 99 1009.4
20260901053619 74 135 0.0 0.0 0.00 0.00 0.00 99 1009.4
20260901053016 74 142 0.0 0.0 0.00 0.00 0.00 99 1009.4
20260901052437 75 137 0.0 0.0 0.00 0.00 0.00 99 1009.8
20260901051844 75 142 0.0 0.0 0.00 0.00 0.00 99 1009.8
20260901051211 75 150 0.0 0.0 0.00 0.00 0.00 99 1009.4
20260901050633 75 135 0.0 0.0 0.00 0.00 0.00 99 1009.4
20260901050019 75 138 0.0 0.0 0.00 0.00 0.00 99 1009.8
20260901045445 75 139 0.0 0.0 0.00 0.00 0.00 99 1009.8
20260901044808 75 141 0.0 0.0 0.00 0.00 0.00 99 1009.8
20260901044207 75 134 0.0 0.0 0.00 0.00 0.00 99 1009.8
20260901043008 75 138 0.0 0.0 0.00 0.00 0.00 99 1009.8
20260901042443 75 146 0.0 0.0 0.00 0.00 0.00 99 1009.8
20260901041847 75 143 0.0 0.0 0.00 0.00 0.00 99 1009.8
20260901035444 76 143 0.0 0.0 0.00 0.00 0.00 99 1010.1
20260901034829 76 142 0.0 0.0 0.00 0.00 0.00 99 1010.1
20260901034218 76 142 0.0 0.0 0.00 0.00 0.00 99 1010.1
20260901033639 76 142 0.0 0.0 0.00 0.00 0.00 99 1010.1
20260901033039 76 142 0.0 0.0 0.00 0.00 0.00 99 1010.1
20260901032450 76 142 0.0 0.0 0.00 0.00 0.00 99 1010.1
20260901031811 76 142 0.0 0.0 0.00 0.00 0.00 99 1010.4
20260901031246 76 142 0.0 0.0 0.00 0.00 0.00 99 1010.4
20260901030650 76 142 0.0 0.0 0.00 0.00 0.00 99 1010.4
20260901030049 76 141 0.0 0.0 0.00 0.00 0.00 99 1010.4
20260901025414 76 137 0.0 0.0 0.00 0.00 0.00 99 1010.4
20260901024810 76 134 0.0 0.0 0.00 0.00 0.00 99 1010.4
20260901024229 77 135 0.0 0.0 0.00 0.00 0.00 99 1010.1
20260901023039 77 136 0.0 0.0 0.00 0.00 0.00 99 1010.1
20260901022432 77 131 0.0 0.0 0.00 0.00 0.00 99 1010.4
20260901021847 77 130 0.0 0.0 0.00 0.00 0.00 99 1010.4
20260901021219 77 136 0.0 0.0 0.00 0.00 0.00 99 1010.4
20260901020637 77 137 0.0 0.0 0.00 0.00 0.00 99 1010.4
20260901020045 77 137 0.0 0.0 0.00 0.00 0.00 99 1010.4
20260901014843 78 134 0.0 0.0 0.00 0.00 0.00 98 1010.4
20260901014223 77 135 0.0 0.0 0.00 0.00 0.00 98 1010.1
20260901013639 78 134 0.0 0.0 0.00 0.00 0.00 98 1010.1
20260901013046 78 134 0.0 0.0 0.00 0.00 0.00 98 1010.1
20260901012414 78 135 0.0 0.0 0.00 0.00 0.00 97 1010.1
20260901011847 78 135 0.0 0.0 0.00 0.00 0.00 97 1009.4
20260901011230 78 131 0.0 0.0 0.00 0.00 0.00 97 1009.8
20260901010643 78 131 0.0 0.0 0.00 0.00 0.00 97 1009.4
20260901010022 78 135 0.0 0.0 0.00 0.00 0.00 97 1009.4
20260901005444 78 133 0.0 0.0 0.00 0.00 0.00 97 1009.4
20260901004837 78 133 0.0 0.0 0.00 0.00 0.00 96 1009.4
20260901004233 79 135 0.0 0.0 0.00 0.00 0.00 96 1009.4
20260901003629 79 133 0.0 0.0 0.00 0.00 0.00 96 1009.4
20260901003040 79 132 0.0 0.0 0.00 0.00 0.00 95 1009.4
20260901002414 79 142 0.0 0.0 0.00 0.00 0.00 95 1009.4
20260901001826 79 143 0.0 0.0 0.00 0.00 0.00 94 1009.1
20260901000625 80 134 0.0 0.0 0.00 0.00 0.00 93 1008.8
20260901000048 80 142 0.0 0.0 0.00 0.00 0.00 93 1008.8
20260831235414 80 139 0.0 0.0 0.00 0.00 0.00 93 1009.1
20260831233648 81 142 0.0 0.0 0.00 0.00 0.00 90 1009.1
20260831233040 82 136 0.0 0.0 0.00 0.00 0.00 89 1009.1
20260831232421 82 144 0.0 0.0 0.00 0.00 0.00 88 1009.1
20260831231816 82 140 0.0 0.0 0.00 0.00 0.00 87 1009.1
20260831230048 83 142 0.0 0.0 0.00 0.00 0.00 87 1009.1
20260831225409 83 141 0.0 0.0 0.00 0.00 0.00 88 1009.4
20260831224825 83 139 0.0 0.0 0.00 0.00 0.00 87 1009.4
20260831224249 84 142 0.0 0.0 0.00 0.00 0.00 87 1009.1
20260831223044 84 136 0.0 0.0 0.00 0.00 0.00 86 1009.4
20260831222425 85 136 0.0 0.0 0.00 0.00 0.00 85 1009.4
20260831221840 85 125 0.0 0.0 0.00 0.00 0.00 85 1009.4
20260831221216 86 138 0.0 0.0 0.00 0.00 0.00 84 1009.4
20260831214830 90 145 0.0 0.0 0.00 0.00 0.00 77 1009.4
20260831214225 91 143 0.0 0.0 0.00 0.00 0.00 76 1009.8
20260831213637 93 153 0.0 0.0 0.00 0.00 0.00 72 1009.8
20260831212447 93 143 0.9 0.9 0.00 0.00 0.00 71 1009.8
20260831211242 94 196 1.7 1.7 0.00 0.00 0.00 67 1009.8
20260831210643 91 185 0.9 0.9 0.00 0.00 0.00 74 1010.1
20260831210041 90 157 0.0 0.9 0.00 0.00 0.00 76 1010.1
20260831205440 90 163 0.0 0.9 0.00 0.00 0.00 75 1009.8
20260831204843 90 199 0.0 0.0 0.00 0.00 0.00 74 1009.8
20260831204227 91 176 0.9 0.9 0.00 0.00 0.00 72 1010.1
20260831203626 92 155 0.0 0.9 0.00 0.00 0.00 66 1009.8
20260831203048 93 209 0.9 1.7 0.00 0.00 0.00 65 1009.8
20260831201242 92 164 0.0 0.0 0.00 0.00 0.00 71 1010.1
20260831200637 92 172 0.9 0.9 0.00 0.00 0.00 69 1010.1
20260831200027 92 255 0.9 0.9 0.00 0.00 0.00 67 1010.4
20260831195410 92 237 1.7 1.7 0.00 0.00 0.00 70 1010.4
20260831194835 91 265 2.6 2.6 0.00 0.00 0.00 71 1010.4
20260831194240 88 182 0.9 0.9 0.00 0.00 0.00 80 1010.4
20260831193645 89 155 0.0 0.0 0.00 0.00 0.00 80 1010.4
20260831193024 89 139 0.0 0.0 0.00 0.00 0.00 78 1010.4
20260831192445 88 182 0.9 0.9 0.00 0.00 0.00 74 1010.4
20260831191838 90 213 1.7 1.7 0.00 0.00 0.00 75 1010.8
20260831191225 91 182 0.9 0.9 0.00 0.00 0.00 72 1010.8
20260831190635 92 209 0.9 1.7 0.00 0.00 0.00 70 1010.8
20260831190045 91 342 1.7 1.7 0.00 0.00 0.00 68 1010.8
20260831185437 91 287 1.7 2.6 0.00 0.00 0.00 70 1011.1
20260831184251 91 210 1.7 2.6 0.00 0.00 0.00 70 1011.1
20260831183631 90 304 1.7 1.7 0.00 0.00 0.00 71 1011.1
20260831183051 90 259 0.9 1.7 0.00 0.00 0.00 72 1011.1
20260831182410 90 245 1.7 1.7 0.00 0.00 0.00 74 1011.1
20260831181832 90 278 0.9 0.9 0.00 0.00 0.00 74 1011.1
20260831180635 89 166 0.9 0.9 0.00 0.00 0.00 74 1011.1
20260831180034 90 329 2.6 2.6 0.00 0.00 0.00 71 1011.1
20260831175420 90 161 0.9 0.9 0.00 0.00 0.00 73 1011.5
20260831174808 90 88 1.7 1.7 0.00 0.00 0.00 76 1011.1
20260831174228 89 188 0.9 0.9 0.00 0.00 0.00 75 1011.5
20260831173651 89 32 1.7 2.6 0.00 0.00 0.00 76 1011.5
20260831172427 88 8 1.7 1.7 0.00 0.00 0.00 77 1011.5
20260831171229 87 273 1.7 1.7 0.00 0.00 0.00 77 1011.5
20260831170623 86 120 0.0 0.9 0.00 0.00 0.00 76 1011.8
20260831165439 87 347 2.6 3.5 0.00 0.00 0.00 77 1011.5
20260831164824 86 126 0.9 0.9 0.00 0.00 0.00 79 1011.8
20260831164248 86 122 0.0 0.9 0.00 0.00 0.00 80 1011.5
20260831163634 86 283 0.9 1.7 0.00 0.00 0.00 82 1011.8
20260831163030 85 253 0.9 1.7 0.00 0.00 0.00 83 1011.8
20260831162440 85 58 0.9 1.7 0.00 0.00 0.00 82 1011.8
20260831161808 84 355 2.6 3.5 0.00 0.00 0.00 85 1011.5
20260831161228 82 236 1.7 1.7 0.00 0.00 0.00 85 1011.8
20260831160646 82 353 2.6 2.6 0.00 0.00 0.00 86 1011.8
20260831160050 81 253 1.7 2.6 0.00 0.00 0.00 88 1011.8
20260831155441 81 81 0.9 0.9 0.00 0.00 0.00 90 1011.8
20260831154218 79 184 0.9 1.7 0.00 0.00 0.00 95 1011.8
20260831153648 78 136 0.0 0.0 0.00 0.00 0.00 95 1011.8
20260831153042 78 157 0.0 0.9 0.00 0.00 0.00 97 1011.8
20260831152407 77 131 0.0 0.0 0.00 0.00 0.00 98 1012.1
20260831151247 76 156 0.0 0.0 0.00 0.00 0.00 99 1012.1
20260831150632 76 158 0.0 0.0 0.00 0.00 0.00 99 1012.1
20260831150014 76 145 0.0 0.0 0.00 0.00 0.00 99 1012.1
20260831145441 76 144 0.0 0.9 0.00 0.00 0.00 99 1012.1
20260831144823 75 140 0.0 0.0 0.00 0.00 0.00 99 1012.1
20260831144217 75 149 0.0 0.0 0.00 0.00 0.00 99 1012.1
20260831143032 74 145 0.0 0.0 0.00 0.00 0.00 99 1012.1
20260831142410 74 149 0.0 0.0 0.00 0.00 0.00 99 1012.1
20260831141247 74 325 0.9 0.9 0.00 0.00 0.00 99 1012.1
20260831140651 74 146 0.0 0.0 0.00 0.00 0.00 99 1012.1
20260831135433 74 148 0.0 0.0 0.00 0.00 0.00 99 1011.8
20260831134848 73 173 0.9 0.9 0.00 0.00 0.00 99 1011.8
20260831134212 73 149 0.0 0.0 0.00 0.00 0.00 99 1011.8
20260831133646 73 132 0.0 0.0 0.00 0.00 0.00 99 1011.8
20260831133036 73 93 0.0 0.0 0.00 0.00 0.00 99 1011.8